Regional Weather Roundup
Issued by NWS

Home | Current Version | Previous Version | Graphics & Text | Print | Product List | Glossary On
Versions: 1 2 3 4 5 6 7 8 9 10 11 12 13 14 15 16 17 18 19 20 21 22 23 24 25 26 27 28 29 30 31 32 33 34 35 36 37 38 39 40 41 42 43 44 45 46 47 48 49 50
870
ASUS43 KLSX 021010
RWRMO

WEATHER SUMMARY FOR MISSOURI
NATIONAL WEATHER SERVICE SPRINGFIELD MO
400 AM CST FRI DEC 02 2016

NOTE: "FAIR" INDICATES FEW OR NO CLOUDS BELOW 12,000 FEET WITH NO
       SIGNIFICANT WEATHER AND/OR OBSTRUCTIONS TO VISIBILITY.
       CURRENT SKY AND/OR WEATHER CONDITIONS ARE NOT AVAILABLE FOR
       CHILLICOTHE AND FARMINGTON.

MOZ001>031-035>038-043-044-053-054-021100-
...NORTHERN AND WESTERN MISSOURI...

CITY           SKY/WX    TMP DP  RH WIND       PRES   REMARKS
KANSAS CTY INT PTCLDY    27  21  78 S3        30.16R
KANSAS C DTWN  CLEAR     28  25  88 CALM      30.17S
LEE`S SUMMIT   CLOUDY    32  23  69 CALM      30.16S
ST JOSEPH      MOCLDY    22  19  89 CALM      30.18R FOG
CHILLICOTHE      N/A     23  20  88 CALM      30.18R
KIRKSVILLE     CLEAR     26  24  92 W5        30.15R WCI  20

$$
MOZ066>068-077>081-088>096-101>105-021100-
...SOUTHWEST MISSOURI...

CITY           SKY/WX    TMP DP  RH WIND       PRES   REMARKS
SPRINGFIELD    CLOUDY    37  28  70 CALM      30.13F
JOPLIN         CLOUDY    39  27  62 E5        30.15R
BRANSON        PTCLDY    32  27  80 CALM      30.15R

$$
MOZ032>034-039>042-045>050-055>058-069>072-021100-
...CENTRAL MISSOURI...

CITY           SKY/WX    TMP DP  RH WIND       PRES   REMARKS
COLUMBIA       PTCLDY    26  23  88 S7        30.17R WCI  18
JEFFERSON CITY PTCLDY    24  22  91 CALM      30.19R
ROLLA          CLOUDY    30  26  85 SW6       30.16R WCI  24
SEDALIA        CLOUDY    32  25  75 SW5       30.18R WCI  27
WHITEMAN AFB   CLOUDY    29  28  96 CALM      30.16R
WARRENSBURG    CLOUDY    28  27  93 CALM      30.18R
OSAGE BEACH    CLOUDY    31  27  85 CALM      30.18S

$$
MOZ051-052-059>065-021100-
...EAST CENTRAL MISSOURI...

CITY           SKY/WX    TMP DP  RH WIND       PRES   REMARKS
ST LOUIS INTL  PTCLDY    30  25  81 CALM      30.18R
SPIRIT OF STL  PTCLDY    25  24  96 CALM      30.19R
ST CHARLES     CLEAR     25  25 100 S3        30.18R

$$
MOZ072>076-082>087-097>100-106>115-021100-
...SOUTH CENTRAL AND SOUTHEAST MISSOURI...

CITY           SKY/WX    TMP DP  RH WIND       PRES   REMARKS
CAPE GIRARDEAU CLEAR     30  27  88 CALM      30.19R
FARMINGTON     CLEAR     25  23  92 CALM      30.18R
POPLAR BLUFF   CLEAR     30  28  92 N3        30.18S
WEST PLAINS    MOCLDY    35  24  64 N5        30.16S

$$




USA.gov is the U.S. government's official web portal to all federal, state and local government web resources and services.